Total_Precipitation_Accumulation
0.00 0.01 0.01 0.02 0.03 0.07 0.09 0.11 0.21 0.27 0.18 0.21 0.36 0.56 0.76 0.92 1.07 1.14 1.30 1.29 1.50 1.75 1.90 2.27 2.63 3.11 3.55 4.05 4.77 5.39 5.82 5.79 5.61 5.26 4.90 4.64 4.12 3.79 3.52 3.24 3.01 2.80 2.56 2.48
0.01 0.02 0.02 0.03 0.03 0.04 0.09 0.14 0.25 0.27 0.18 0.19 0.36 0.61 0.88 0.96 0.92 0.95 1.17 1.28 1.37 1.57 1.86 2.20 2.71 3.01 3.37 3.87 4.43 4.84 4.84 4.51 4.38 4.39 4.30 4.06 4.05 3.86 3.72 3.44 3.22 2.83 2.67 2.56
0.03 0.04 0.02 0.03 0.05 0.05 0.08 0.13 0.20 0.24 0.25 0.28 0.39 0.76 1.05 1.07 0.93 0.86 0.90 1.02 1.15 1.30 1.50 1.83 2.38 2.69 2.88 3.35 3.69 3.72 3.61 3.43 3.48 3.54 3.53 3.61 3.82 3.80 3.73 3.57 3.29 3.00 2.85 2.74
0.02 0.03 0.03 0.04 0.07 0.06 0.10 0.09 0.11 0.14 0.23 0.46 0.52 0.95 1.26 1.35 1.26 1.02 0.90 1.01 1.09 1.21 1.26 1.56 1.87 2.10 2.36 2.60 2.72 2.71 2.80 2.82 2.84 2.89 2.92 2.83 2.86 3.02 3.21 3.41 3.46 3.39 3.14 2.88
0.03 0.04 0.05 0.05 0.06 0.07 0.07 0.07 0.09 0.14 0.21 0.35 0.46 0.74 1.20 1.48 1.61 1.27 1.02 0.92 0.88 1.04 1.29 1.48 1.58 1.74 1.83 1.86 1.97 2.04 2.33 2.64 2.75 2.82 2.91 2.83 2.55 2.52 2.56 2.69 2.83 2.84 2.82 2.65
0.04 0.05 0.05 0.05 0.05 0.07 0.08 0.12 0.20 0.30 0.44 0.68 0.63 0.68 1.09 1.35 1.51 1.22 1.00 0.91 0.79 0.81 0.99 1.21 1.46 1.54 1.49 1.46 1.62 1.83 2.13 2.52 2.74 2.81 2.76 2.71 2.60 2.57 2.48 2.49 2.54 2.41 2.38 2.32
0.15 0.13 0.10 0.06 0.07 0.08 0.09 0.17 0.54 0.93 1.25 1.27 0.75 0.72 0.96 1.02 0.96 0.96 0.83 0.78 0.82 0.76 0.76 0.77 0.95 1.19 1.16 1.12 1.29 1.55 1.73 2.04 2.26 2.37 2.35 2.27 2.36 2.47 2.36 2.23 2.16 2.09 1.95 1.86
0.19 0.23 0.14 0.09 0.07 0.07 0.08 0.13 0.39 0.68 0.86 0.98 0.81 1.13 1.27 0.95 0.79 0.70 0.58 0.56 0.65 0.60 0.56 0.55 0.61 0.75 0.96 0.98 1.04 1.15 1.38 1.60 1.79 1.87 1.98 2.08 2.24 2.34 2.29 2.43 2.24 2.09 1.80 1.66
0.08 0.11 0.10 0.09 0.09 0.10 0.10 0.09 0.14 0.25 0.39 0.67 0.94 1.16 1.15 0.97 0.91 0.72 0.54 0.47 0.49 0.47 0.46 0.46 0.54 0.71 0.73 0.73 0.79 0.90 1.13 1.32 1.47 1.60 1.76 1.83 1.81 1.82 1.95 2.14 2.16 2.01 1.92 1.73
0.05 0.05 0.07 0.09 0.10 0.11 0.10 0.09 0.12 0.19 0.34 0.53 0.85 1.22 1.30 1.21 1.06 0.89 0.78 0.57 0.45 0.44 0.46 0.44 0.46 0.53 0.54 0.53 0.67 0.91 1.10 1.13 1.33 1.62 1.78 1.68 1.67 1.58 1.72 1.81 1.85 1.91 1.86 1.84
0.04 0.04 0.07 0.09 0.12 0.15 0.15 0.12 0.12 0.16 0.20 0.35 0.73 0.96 0.90 0.96 0.90 0.87 0.76 0.63 0.54 0.47 0.47 0.47 0.46 0.46 0.57 0.51 0.61 0.78 0.91 1.04 1.33 1.62 1.81 1.80 1.64 1.63 1.75 1.70 1.67 1.80 1.84 1.82
0.05 0.05 0.07 0.12 0.17 0.17 0.16 0.15 0.15 0.22 0.22 0.25 0.40 0.64 0.53 0.63 0.75 0.78 0.62 0.54 0.49 0.38 0.39 0.37 0.34 0.40 0.40 0.40 0.52 0.82 1.13 1.47 1.63 1.87 2.11 2.11 1.81 1.64 1.59 1.49 1.50 1.67 1.86 1.89
0.05 0.06 0.13 0.31 0.34 0.24 0.18 0.14 0.15 0.17 0.17 0.19 0.39 0.61 0.49 0.54 0.65 0.66 0.59 0.51 0.48 0.47 0.41 0.41 0.37 0.45 0.42 0.41 0.44 0.58 0.72 1.05 1.36 1.67 1.93 1.88 1.64 1.49 1.47 1.48 1.53 1.66 1.80 1.81
0.06 0.05 0.10 0.26 0.33 0.32 0.26 0.20 0.17 0.14 0.16 0.20 0.28 0.52 0.54 0.60 0.54 0.55 0.49 0.46 0.54 0.62 0.53 0.48 0.45 0.43 0.42 0.43 0.42 0.51 0.59 0.68 0.88 1.25 1.51 1.52 1.39 1.34 1.37 1.43 1.45 1.45 1.49 1.55
0.07 0.06 0.05 0.06 0.15 0.21 0.23 0.21 0.18 0.14 0.13 0.25 0.28 0.37 0.47 0.63 0.60 0.59 0.55 0.48 0.48 0.56 0.54 0.51 0.49 0.53 0.54 0.59 0.59 0.58 0.60 0.63 0.79 1.16 1.36 1.33 1.29 1.29 1.26 1.27 1.36 1.42 1.48 1.53
0.10 0.10 0.09 0.10 0.14 0.15 0.16 0.19 0.18 0.13 0.11 0.10 0.16 0.30 0.35 0.56 0.69 0.67 0.65 0.62 0.59 0.58 0.54 0.51 0.44 0.52 0.60 0.65 0.66 0.64 0.65 0.68 0.80 1.05 1.26 1.25 1.22 1.21 1.15 1.20 1.30 1.45 1.56 1.72
0.16 0.15 0.15 0.15 0.19 0.17 0.24 0.20 0.17 0.15 0.14 0.15 0.23 0.36 0.36 0.41 0.57 0.68 0.66 0.61 0.56 0.59 0.52 0.51 0.53 0.63 0.82 0.74 0.73 0.78 0.71 0.71 0.83 1.03 1.20 1.28 1.25 1.27 1.25 1.22 1.39 1.58 1.75 1.91
0.29 0.27 0.25 0.21 0.25 0.36 0.28 0.21 0.22 0.25 0.28 0.28 0.32 0.36 0.39 0.50 0.57 0.70 0.86 0.71 0.56 0.59 0.61 0.67 0.65 0.72 0.80 0.77 0.80 0.83 0.82 0.80 0.90 1.08 1.29 1.37 1.31 1.37 1.45 1.45 1.54 1.76 1.98 2.12
0.34 0.39 0.36 0.31 0.34 0.41 0.37 0.30 0.34 0.38 0.43 0.45 0.48 0.42 0.47 0.53 0.63 0.76 0.72 0.71 0.74 0.72 0.72 0.78 0.86 0.88 0.94 0.95 0.90 0.89 0.97 0.99 1.06 1.15 1.31 1.41 1.45 1.53 1.56 1.60 1.78 2.00 2.19 2.24
0.36 0.45 0.49 0.44 0.52 0.59 0.58 0.43 0.37 0.44 0.76 0.61 0.63 0.62 0.55 0.57 0.82 0.93 0.78 0.70 0.70 0.80 0.88 0.85 0.91 0.96 0.98 1.01 1.05 1.05 1.12 1.27 1.40 1.48 1.54 1.71 1.87 2.03 2.10 2.15 2.23 2.28 2.37 2.33
0.64 0.61 0.60 0.65 0.76 0.70 0.56 0.50 0.43 0.82 1.16 0.86 0.83 0.81 0.72 0.82 0.93 0.92 0.79 0.72 0.67 0.71 0.84 0.90 0.89 0.98 1.06 1.07 1.17 1.32 1.41 1.52 1.65 1.78 1.85 2.03 2.33 2.49 2.48 2.49 2.44 2.37 2.38 2.40
0.87 0.82 0.83 0.88 1.11 1.17 0.65 0.60 0.92 1.16 1.00 1.02 1.03 1.00 0.93 0.90 0.96 0.96 0.92 0.75 0.68 0.69 0.76 0.86 0.91 0.96 1.12 1.35 1.53 1.77 1.86 1.83 1.93 2.08 2.22 2.39 2.61 2.55 2.47 2.64 2.57 2.54 2.60 2.57
0.92 0.98 1.06 1.14 1.34 1.14 0.80 0.92 1.10 1.09 1.05 1.08 1.05 0.99 0.89 0.84 0.99 0.94 0.85 0.81 0.68 0.66 0.73 0.82 0.90 1.01 1.17 1.44 1.80 2.05 2.10 2.21 2.24 2.32 2.44 2.50 2.55 2.69 2.83 2.88 2.77 2.69 2.66 2.58
1.08 0.99 1.16 1.37 1.45 1.23 1.07 1.06 1.02 1.06 1.07 1.03 0.94 0.89 0.88 0.83 0.84 0.84 0.77 0.75 0.71 0.70 0.78 0.82 0.91 1.08 1.33 1.55 1.86 2.02 2.08 2.12 2.15 2.18 2.17 2.23 2.35 2.46 2.55 2.79 2.85 2.75 2.61 2.53
1.26 1.17 1.38 1.74 1.82 1.68 1.55 1.32 1.15 1.13 1.09 1.12 1.07 0.97 0.93 0.86 0.80 0.75 0.74 0.73 0.72 0.72 0.81 0.89 0.98 1.10 1.24 1.44 1.65 1.75 1.90 1.98 2.11 2.13 2.07 2.03 2.05 2.16 2.24 2.33 2.43 2.40 2.37 2.19
1.34 1.41 1.66 2.01 1.75 1.69 1.82 1.57 1.36 1.30 1.27 1.31 1.33 1.28 1.12 0.99 0.91 0.85 0.82 0.75 0.71 0.70 0.79 0.89 1.00 1.13 1.23 1.40 1.61 1.70 1.84 1.91 1.97 1.97 1.90 1.91 1.91 1.99 2.03 2.01 1.93 1.77 1.69 1.54